Regional Weather Roundup
Issued by NWS New Orleans/Baton Rouge, LA

Current Version | Previous Version | Text Only | Print | Product List | Glossary On
Versions: 1 2 3 4 5 6 7 8 9 10 11 12 13 14 15 16 17 18 19 20 21 22 23 24 25 26 27 28
000
ASUS44 KLIX 210414
RWRLIX
NEW ORLEANS REGIONAL WEATHER ROUNDUP
NATIONAL WEATHER SERVICE NEW ORLEANS LA
1100 PM CDT FRI OCT 20 2017

NOTE: "FAIR" INDICATES FEW OR NO CLOUDS BELOW 12,000 FEET WITH NO
      SIGNIFICANT WEATHER AND/OR OBSTRUCTIONS TO VISIBILITY.
      SKY/WX - SKY CONDITION AND SIGNIFICANT WEATHER.
      TMP - AIR TEMPERATURE.     DP    - DEWPOINT TEMPERATURE.
      RH  - RELATIVE HUMIDITY.   PRES  - PRESSURE.
      HI  - HEAT INDEX.          WCI   - WIND CHILL INDEX.

*  THESE STATIONS ARE NOT NWS OR FAA STATIONS AND ARE NOT UNDER
   NWS QUALITY CONTROL.

LAZ038-040-048-061>063-065>067-069-210500-
SOUTHEAST LOUISIANA

CITY           SKY/WX    TMP DP  RH WIND       PRES   REMARKS
N.O. INTL ARPT MOCLDY    75  73  93 E10       30.06F
N.O. LAKEFRONT MOCLDY    75  73  93 E13       30.07F
N.O. DOWNTOWN* MOCLDY    76  72  87 VRB7      30.07F
RESERVE*       MOCLDY    75  71  87 E8        30.07S
SLIDELL        MOCLDY    69  66  90 NE3       30.08F
BATON ROUGE    CLOUDY    72  68  87 E10       30.05F
BOOTHVILLE     PTCLDY    81  74  79 SE7       30.07S
BELLE CHASSE   MOCLDY    76  69  78 E14       30.05S
BOGALUSA*        N/A     66  62  89 CALM      30.11F
GALLIANO*      CLOUDY    77  72  84 E5        30.06S
NEW ROADS*       N/A     72  67  85 E7        30.06S
GONZALES*        N/A     73  70  91 E6        30.05S
HAMMOND*       PTCLDY    70  64  83 E7        30.08S
HOUMA*         CLOUDY   N/A N/A N/A E5        30.05S HAZE
PORT FOURCHON* CLEAR     79  73  83 SE14      30.06S

$$

MSZ070-080>082-210500-
SOUTHERN MISSISSIPPI

CITY           SKY/WX    TMP DP  RH WIND       PRES   REMARKS
MCCOMB         CLOUDY    69  65  86 E3        30.09S
GULFPORT       PTCLDY    74  69  85 E7        30.09R
BILOXI         MOCLDY    73  68  83 E5        30.10R
PASCAGOULA     MOCLDY    70  65  84 E3        30.10S

$$

COASTAL OBSERVATIONS
LAKE AND NEARSHORE STATIONS

STATION/POSITION TIME  TEMP    WIND        PRES    WAVE
                       AIR SEA DIR/SP/G            HT/PER
                 (UTC) (F)     (DEG/KT/KT) (MB)    (FT/S)
PASCAGOULA       0342   76     100/ 10/ 19 1018.9
WAVELAND YACHT   0342   75 74  110/ 10/ 12 1019.1
GRAND ISLE       0342   79 77  120/  6/ 10 1018.1
NEW CANAL        0342   75 76   80/  4/  8 1018.0
SHELL BEACH      0342   76 77   90/ 10/ 12 1018.5

OFFSHORE STATIONS

STATION/POSITION TIME  TEMP    WIND        PRES    WAVE
                       AIR SEA DIR/SP/G            HT/PER
                 (UTC) (F)     (DEG/KT/KT) (MB)    (FT/S)
64 S DAUPHIN ISL 0350   80 81  110/ 19/ 25 1018.6    6/ 6

$$





USA.gov is the U.S. government's official web portal to all federal, state and local government web resources and services.